Time,TemperatureF,DewpointF,PressureIn,WindDirection,WindDirectionDegrees,WindSpeedMPH,WindSpeedGustMPH,Humidity,HourlyPrecipIn,Conditions,Clouds,dailyrainin,SoftwareType,DateUTC
2015-07-07 00:01:00,77.7,71.0,29.87,South,169,1.0,3.0,80,0.00,,,0.00,VWS V14.01,2015-07-07 05:01:00,
2015-07-07 00:06:00,77.6,70.9,29.87,SSE,161,2.0,3.0,80,0.00,,,0.00,VWS V14.01,2015-07-07 05:06:00,
2015-07-07 00:16:00,77.7,71.0,29.87,SSE,165,1.0,3.0,80,0.00,,,0.00,VWS V14.01,2015-07-07 05:16:00,
2015-07-07 00:21:00,77.8,71.1,29.87,South,183,1.0,3.0,80,0.00,,,0.00,VWS V14.01,2015-07-07 05:21:00,
2015-07-07 00:26:00,77.9,71.2,29.87,SSW,201,3.0,3.0,80,0.00,,,0.00,VWS V14.01,2015-07-07 05:26:00,
2015-07-07 00:31:00,77.9,71.2,29.87,South,187,0.0,3.0,80,0.00,,,0.00,VWS V14.01,2015-07-07 05:31:00,
2015-07-07 00:36:00,77.8,71.1,29.87,South,186,0.0,3.0,80,0.00,,,0.00,VWS V14.01,2015-07-07 05:36:00,
2015-07-07 00:41:00,78.0,71.0,29.87,South,187,3.0,3.0,79,0.00,,,0.00,VWS V14.01,2015-07-07 05:41:00,
2015-07-07 00:46:00,78.2,71.2,29.87,SW,215,0.0,3.0,79,0.00,,,0.00,VWS V14.01,2015-07-07 05:46:00,
2015-07-07 00:51:00,78.3,70.9,29.87,West,265,4.0,4.0,78,0.00,,,0.00,VWS V14.01,2015-07-07 05:51:00,
2015-07-07 00:56:00,78.3,70.9,29.87,SW,215,2.0,3.0,78,0.00,,,0.00,VWS V14.01,2015-07-07 05:56:00,
2015-07-07 01:01:00,78.4,71.3,29.87,ESE,119,0.0,3.0,79,0.00,,,0.00,VWS V14.01,2015-07-07 06:01:00,
2015-07-07 01:06:00,78.4,71.0,29.86,SE,140,2.0,3.0,78,0.00,,,0.00,VWS V14.01,2015-07-07 06:06:00,
2015-07-07 01:11:00,78.4,71.0,29.86,SE,141,1.0,3.0,78,0.00,,,0.00,VWS V14.01,2015-07-07 06:11:00,
2015-07-07 01:16:00,78.5,71.1,29.86,East,92,3.0,3.0,78,0.00,,,0.00,VWS V14.01,2015-07-07 06:16:00,
2015-07-07 01:21:00,78.5,71.1,29.85,South,181,1.0,3.0,78,0.00,,,0.00,VWS V14.01,2015-07-07 06:21:00,
2015-07-07 01:26:00,78.4,71.0,29.85,ESE,109,0.0,3.0,78,0.00,,,0.00,VWS V14.01,2015-07-07 06:26:00,
2015-07-07 01:31:00,78.4,71.0,29.85,SSE,159,1.0,3.0,78,0.00,,,0.00,VWS V14.01,2015-07-07 06:31:00,
2015-07-07 01:36:00,78.5,71.1,29.85,SSW,192,0.0,3.0,78,0.00,,,0.00,VWS V14.01,2015-07-07 06:36:00,
2015-07-07 01:41:00,78.4,71.0,29.85,SE,132,1.0,3.0,78,0.00,,,0.00,VWS V14.01,2015-07-07 06:41:00,
2015-07-07 01:46:00,78.5,71.1,29.85,WNW,299,0.0,3.0,78,0.00,,,0.00,VWS V14.01,2015-07-07 06:46:00,
2015-07-07 01:51:00,78.4,71.0,29.85,South,187,1.0,3.0,78,0.00,,,0.00,VWS V14.01,2015-07-07 06:51:00,
2015-07-07 01:56:00,78.3,70.9,29.85,SE,142,2.0,3.0,78,0.00,,,0.00,VWS V14.01,2015-07-07 06:56:00,
2015-07-07 02:01:00,78.1,71.1,29.85,SSE,157,2.0,3.0,79,0.00,,,0.00,VWS V14.01,2015-07-07 07:01:00,
2015-07-07 02:06:00,78.0,71.0,29.84,South,188,1.0,3.0,79,0.00,,,0.00,VWS V14.01,2015-07-07 07:06:00,
2015-07-07 02:11:00,77.9,70.9,29.84,ESE,117,0.0,3.0,79,0.00,,,0.00,VWS V14.01,2015-07-07 07:11:00,
2015-07-07 02:16:00,77.9,70.9,29.84,SSW,203,0.0,3.0,79,0.00,,,0.00,VWS V14.01,2015-07-07 07:16:00,
2015-07-07 02:21:00,77.9,71.2,29.83,South,171,3.0,3.0,80,0.00,,,0.00,VWS V14.01,2015-07-07 07:21:00,
2015-07-07 02:26:00,77.8,71.1,29.83,South,190,1.0,3.0,80,0.00,,,0.00,VWS V14.01,2015-07-07 07:26:00,
2015-07-07 02:31:00,77.7,71.0,29.83,SSE,157,1.0,3.0,80,0.00,,,0.00,VWS V14.01,2015-07-07 07:31:00,
2015-07-07 02:36:00,77.6,70.9,29.83,SW,215,6.0,6.0,80,0.00,,,0.00,VWS V14.01,2015-07-07 07:36:00,
2015-07-07 02:41:00,77.8,71.1,29.83,SE,139,2.0,3.0,80,0.00,,,0.00,VWS V14.01,2015-07-07 07:41:00,
2015-07-07 02:46:00,77.9,70.9,29.83,South,169,2.0,3.0,79,0.00,,,0.00,VWS V14.01,2015-07-07 07:46:00,
2015-07-07 02:51:00,77.9,70.9,29.82,South,184,1.0,3.0,79,0.00,,,0.00,VWS V14.01,2015-07-07 07:51:00,
2015-07-07 02:56:00,78.0,71.0,29.82,South,184,1.0,3.0,79,0.00,,,0.00,VWS V14.01,2015-07-07 07:56:00,
2015-07-07 03:01:00,78.0,71.0,29.82,NNW,331,1.0,3.0,79,0.00,,,0.00,VWS V14.01,2015-07-07 08:01:00,
2015-07-07 03:06:00,77.9,70.9,29.83,South,180,2.0,3.0,79,0.00,,,0.00,VWS V14.01,2015-07-07 08:06:00,
2015-07-07 03:11:00,77.9,70.9,29.83,South,174,2.0,3.0,79,0.00,,,0.00,VWS V14.01,2015-07-07 08:11:00,
2015-07-07 03:16:00,77.9,70.9,29.83,SSW,203,1.0,3.0,79,0.00,,,0.00,VWS V14.01,2015-07-07 08:16:00,
2015-07-07 03:21:00,77.9,70.9,29.83,SSW,205,0.0,3.0,79,0.00,,,0.00,VWS V14.01,2015-07-07 08:21:00,
2015-07-07 03:26:00,77.9,71.2,29.83,SSE,163,1.0,3.0,80,0.00,,,0.00,VWS V14.01,2015-07-07 08:26:00,
2015-07-07 03:31:00,77.9,70.9,29.83,South,172,0.0,3.0,79,0.00,,,0.00,VWS V14.01,2015-07-07 08:31:00,
2015-07-07 03:36:00,77.8,71.1,29.83,South,178,0.0,3.0,80,0.00,,,0.00,VWS V14.01,2015-07-07 08:36:00,
2015-07-07 03:41:00,77.7,71.0,29.83,South,180,1.0,3.0,80,0.00,,,0.00,VWS V14.01,2015-07-07 08:41:00,
2015-07-07 03:46:00,77.6,70.9,29.83,South,172,3.0,3.0,80,0.00,,,0.00,VWS V14.01,2015-07-07 08:46:00,
2015-07-07 03:51:00,77.6,70.9,29.83,South,188,2.0,3.0,80,0.00,,,0.00,VWS V14.01,2015-07-07 08:51:00,
2015-07-07 03:56:00,77.5,71.2,29.83,SE,142,1.0,3.0,81,0.00,,,0.00,VWS V14.01,2015-07-07 08:56:00,
2015-07-07 04:01:00,77.4,71.1,29.83,South,169,0.0,3.0,81,0.00,,,0.00,VWS V14.01,2015-07-07 09:01:00,
2015-07-07 04:06:00,77.4,71.1,29.83,SSE,156,1.0,3.0,81,0.00,,,0.00,VWS V14.01,2015-07-07 09:06:00,
2015-07-07 04:11:00,77.4,71.1,29.83,South,175,0.0,3.0,81,0.00,,,0.00,VWS V14.01,2015-07-07 09:11:00,
2015-07-07 04:16:00,77.3,71.0,29.83,South,177,0.0,3.0,81,0.00,,,0.00,VWS V14.01,2015-07-07 09:16:00,
2015-07-07 04:21:00,77.3,71.0,29.83,South,169,1.0,3.0,81,0.00,,,0.00,VWS V14.01,2015-07-07 09:21:00,
2015-07-07 04:26:00,77.1,71.2,29.83,South,186,0.0,3.0,82,0.00,,,0.00,VWS V14.01,2015-07-07 09:26:00,
2015-07-07 04:31:00,77.1,71.2,29.83,SSW,198,1.0,3.0,82,0.00,,,0.00,VWS V14.01,2015-07-07 09:31:00,
2015-07-07 04:36:00,77.0,71.1,29.83,SSW,198,0.0,3.0,82,0.00,,,0.00,VWS V14.01,2015-07-07 09:36:00,
2015-07-07 04:41:00,76.9,71.3,29.83,SW,215,2.0,3.0,83,0.00,,,0.00,VWS V14.01,2015-07-07 09:41:00,
2015-07-07 04:46:00,76.9,71.0,29.83,SSW,197,0.0,3.0,82,0.00,,,0.00,VWS V14.01,2015-07-07 09:46:00,
2015-07-07 04:51:00,77.0,71.4,29.83,South,176,0.0,3.0,83,0.00,,,0.00,VWS V14.01,2015-07-07 09:51:00,
2015-07-07 04:56:00,77.0,71.4,29.83,SSW,192,0.0,3.0,83,0.00,,,0.00,VWS V14.01,2015-07-07 09:56:00,
2015-07-07 05:01:00,76.9,71.3,29.83,SSE,157,2.0,3.0,83,0.00,,,0.00,VWS V14.01,2015-07-07 10:01:00,
2015-07-07 05:06:00,76.9,71.3,29.83,SSE,167,0.0,3.0,83,0.00,,,0.00,VWS V14.01,2015-07-07 10:06:00,
2015-07-07 05:11:00,76.8,71.2,29.83,SSE,165,0.0,3.0,83,0.00,,,0.00,VWS V14.01,2015-07-07 10:11:00,
2015-07-07 05:16:00,76.7,71.2,29.83,South,179,1.0,3.0,83,0.00,,,0.00,VWS V14.01,2015-07-07 10:16:00,
2015-07-07 05:26:00,76.8,71.2,29.83,South,178,1.0,3.0,83,0.00,,,0.00,VWS V14.01,2015-07-07 10:26:00,
2015-07-07 05:31:00,76.9,71.3,29.83,SSW,193,3.0,3.0,83,0.00,,,0.00,VWS V14.01,2015-07-07 10:31:00,
2015-07-07 05:36:00,76.9,71.3,29.83,ESE,105,1.0,3.0,83,0.00,,,0.00,VWS V14.01,2015-07-07 10:36:00,
2015-07-07 05:46:00,76.8,71.2,29.83,SSW,197,0.0,3.0,83,0.00,,,0.00,VWS V14.01,2015-07-07 10:46:00,
2015-07-07 05:51:00,76.7,71.2,29.83,SW,229,0.0,3.0,83,0.00,,,0.00,VWS V14.01,2015-07-07 10:51:00,
2015-07-07 05:56:00,76.7,71.5,29.83,SSW,207,1.0,3.0,84,0.00,,,0.00,VWS V14.01,2015-07-07 10:56:00,
2015-07-07 06:01:00,76.8,71.2,29.83,SSW,194,0.0,3.0,83,0.00,,,0.00,VWS V14.01,2015-07-07 11:01:00,
2015-07-07 06:06:00,76.8,71.2,29.83,SSW,206,0.0,3.0,83,0.00,,,0.00,VWS V14.01,2015-07-07 11:06:00,
2015-07-07 06:11:00,76.8,71.6,29.83,SE,140,1.0,3.0,84,0.00,,,0.00,VWS V14.01,2015-07-07 11:11:00,
2015-07-07 06:16:00,76.7,71.5,29.83,SSE,159,0.0,3.0,84,0.00,,,0.00,VWS V14.01,2015-07-07 11:16:00,
2015-07-07 06:26:00,76.4,71.6,29.84,SSW,199,0.0,3.0,85,0.00,,,0.00,VWS V14.01,2015-07-07 11:26:00,
2015-07-07 06:31:00,76.2,71.7,29.84,South,186,3.0,3.0,86,0.00,,,0.00,VWS V14.01,2015-07-07 11:31:00,
2015-07-07 06:36:00,76.0,71.5,29.84,South,172,1.0,3.0,86,0.00,,,0.00,VWS V14.01,2015-07-07 11:36:00,
2015-07-07 06:41:00,76.0,71.5,29.84,SSW,194,0.0,3.0,86,0.00,,,0.00,VWS V14.01,2015-07-07 11:41:00,
2015-07-07 06:46:00,76.0,71.5,29.84,SSW,192,2.0,3.0,86,0.00,,,0.00,VWS V14.01,2015-07-07 11:46:00,
2015-07-07 06:51:00,76.0,71.5,29.84,South,171,0.0,3.0,86,0.00,,,0.00,VWS V14.01,2015-07-07 11:51:00,
2015-07-07 06:56:00,76.0,71.9,29.84,SE,128,3.0,3.0,87,0.00,,,0.00,VWS V14.01,2015-07-07 11:56:00,
2015-07-07 07:01:00,75.8,71.7,29.84,East,99,1.0,3.0,87,0.00,,,0.00,VWS V14.01,2015-07-07 12:01:00,
2015-07-07 07:06:00,75.6,71.8,29.85,South,179,0.0,3.0,88,0.00,,,0.00,VWS V14.01,2015-07-07 12:06:00,
2015-07-07 07:11:00,75.5,72.0,29.85,South,179,0.0,3.0,89,0.00,,,0.00,VWS V14.01,2015-07-07 12:11:00,
2015-07-07 07:16:00,75.4,71.9,29.85,South,176,2.0,3.0,89,0.00,,,0.00,VWS V14.01,2015-07-07 12:16:00,
2015-07-07 07:21:00,75.3,71.8,29.85,West,280,0.0,3.0,89,0.00,,,0.00,VWS V14.01,2015-07-07 12:21:00,
2015-07-07 07:26:00,75.3,71.8,29.85,SSE,164,4.0,4.0,89,0.00,,,0.00,VWS V14.01,2015-07-07 12:26:00,
2015-07-07 07:31:00,75.3,71.8,29.85,SSW,203,0.0,3.0,89,0.00,,,0.00,VWS V14.01,2015-07-07 12:31:00,
2015-07-07 07:41:00,75.1,72.0,29.85,SSW,204,0.0,3.0,90,0.01,,,0.01,VWS V14.01,2015-07-07 12:41:00,
2015-07-07 07:46:00,74.9,72.1,29.85,SSW,203,0.0,3.0,91,0.02,,,0.02,VWS V14.01,2015-07-07 12:46:00,
2015-07-07 07:51:00,74.7,72.2,29.85,NW,306,0.0,3.0,92,0.02,,,0.02,VWS V14.01,2015-07-07 12:51:00,
2015-07-07 07:56:00,74.5,72.0,29.85,NW,306,0.0,3.0,92,0.03,,,0.03,VWS V14.01,2015-07-07 12:56:00,
2015-07-07 08:01:00,74.3,72.2,29.85,NNW,329,1.0,3.0,93,0.03,,,0.03,VWS V14.01,2015-07-07 13:01:00,
2015-07-07 08:06:00,74.2,72.1,29.86,NNW,329,0.0,3.0,93,0.07,,,0.07,VWS V14.01,2015-07-07 13:06:00,
2015-07-07 08:11:00,73.9,72.1,29.86,NNW,329,0.0,3.0,94,0.16,,,0.16,VWS V14.01,2015-07-07 13:11:00,
2015-07-07 08:16:00,73.7,71.9,29.86,NNW,328,0.0,3.0,94,0.19,,,0.19,VWS V14.01,2015-07-07 13:16:00,
2015-07-07 08:21:00,73.6,71.8,29.86,South,178,0.0,3.0,94,0.21,,,0.21,VWS V14.01,2015-07-07 13:21:00,
2015-07-07 08:26:00,73.6,72.1,29.86,SSE,157,1.0,3.0,95,0.25,,,0.25,VWS V14.01,2015-07-07 13:26:00,
2015-07-07 08:31:00,73.6,72.1,29.86,West,268,0.0,3.0,95,0.29,,,0.29,VWS V14.01,2015-07-07 13:31:00,
2015-07-07 08:36:00,73.5,72.0,29.87,West,268,1.0,3.0,95,0.31,,,0.31,VWS V14.01,2015-07-07 13:36:00,
2015-07-07 08:41:00,73.5,72.0,29.87,West,268,0.0,3.0,95,0.32,,,0.32,VWS V14.01,2015-07-07 13:41:00,
2015-07-07 08:46:00,73.4,71.9,29.87,West,268,0.0,3.0,95,0.37,,,0.38,VWS V14.01,2015-07-07 13:46:00,
2015-07-07 08:51:00,73.2,71.7,29.88,NNW,332,0.0,3.0,95,0.41,,,0.43,VWS V14.01,2015-07-07 13:51:00,
2015-07-07 08:56:00,73.0,71.5,29.88,NNW,332,2.0,3.0,95,0.45,,,0.47,VWS V14.01,2015-07-07 13:56:00,
2015-07-07 09:01:00,72.7,71.2,29.88,NNW,332,0.0,3.0,95,0.46,,,0.49,VWS V14.01,2015-07-07 14:01:00,
2015-07-07 09:06:00,72.6,71.1,29.89,NNW,332,0.0,3.0,95,0.51,,,0.54,VWS V14.01,2015-07-07 14:06:00,
2015-07-07 09:11:00,72.6,71.1,29.89,NNW,332,1.0,3.0,95,0.53,,,0.60,VWS V14.01,2015-07-07 14:11:00,
2015-07-07 09:16:00,72.4,70.9,29.89,NNE,32,0.0,3.0,95,0.58,,,0.74,VWS V14.01,2015-07-07 14:16:00,
2015-07-07 09:21:00,72.1,70.6,29.89,NNE,32,1.0,3.0,95,0.64,,,0.83,VWS V14.01,2015-07-07 14:21:00,
2015-07-07 09:26:00,71.8,70.3,29.89,NNE,31,3.0,3.0,95,0.69,,,0.90,VWS V14.01,2015-07-07 14:26:00,
2015-07-07 09:31:00,71.3,69.8,29.89,WSW,250,0.0,3.0,95,0.78,,,1.03,VWS V14.01,2015-07-07 14:31:00,
2015-07-07 09:36:00,71.0,69.5,29.92,WNW,290,0.0,3.0,95,0.97,,,1.26,VWS V14.01,2015-07-07 14:36:00,
2015-07-07 09:41:00,70.7,69.2,29.92,WNW,288,0.0,3.0,95,1.15,,,1.46,VWS V14.01,2015-07-07 14:41:00,
2015-07-07 09:46:00,70.4,69.2,29.92,WNW,288,0.0,3.0,96,1.22,,,1.54,VWS V14.01,2015-07-07 14:46:00,
2015-07-07 09:51:00,70.2,69.0,29.91,North,360,0.0,3.0,96,1.24,,,1.62,VWS V14.01,2015-07-07 14:51:00,
2015-07-07 09:56:00,70.1,68.9,29.91,NNE,29,0.0,3.0,96,1.30,,,1.73,VWS V14.01,2015-07-07 14:56:00,
2015-07-07 10:01:00,70.0,68.8,29.91,NNE,30,0.0,3.0,96,1.30,,,1.77,VWS V14.01,2015-07-07 15:01:00,
2015-07-07 10:06:00,70.0,68.8,29.91,NNE,30,0.0,3.0,96,1.32,,,1.81,VWS V14.01,2015-07-07 15:06:00,
2015-07-07 10:11:00,70.0,68.8,29.91,NNE,30,2.0,3.0,96,1.32,,,1.86,VWS V14.01,2015-07-07 15:11:00,
2015-07-07 10:16:00,70.0,68.8,29.91,NNE,22,0.0,3.0,96,1.28,,,1.88,VWS V14.01,2015-07-07 15:16:00,
2015-07-07 10:21:00,70.0,68.8,29.91,NNE,23,0.0,3.0,96,1.15,,,1.89,VWS V14.01,2015-07-07 15:21:00,
2015-07-07 10:26:00,70.0,68.8,29.91,NNE,23,0.0,3.0,96,1.09,,,1.92,VWS V14.01,2015-07-07 15:26:00,
2015-07-07 10:31:00,70.0,68.8,29.91,NNE,23,0.0,3.0,96,1.05,,,1.95,VWS V14.01,2015-07-07 15:31:00,
2015-07-07 10:36:00,70.1,68.9,29.91,NNE,22,0.0,3.0,96,0.94,,,1.97,VWS V14.01,2015-07-07 15:36:00,
2015-07-07 10:41:00,70.2,69.3,29.91,NNE,23,0.0,3.0,97,0.73,,,1.99,VWS V14.01,2015-07-07 15:41:00,
2015-07-07 10:46:00,70.3,69.4,29.91,NNE,23,0.0,3.0,97,0.56,,,2.02,VWS V14.01,2015-07-07 15:46:00,
2015-07-07 10:51:00,70.3,69.4,29.91,NNE,22,0.0,3.0,97,0.48,,,2.02,VWS V14.01,2015-07-07 15:51:00,
2015-07-07 11:01:00,70.4,69.5,29.91,NNE,23,0.0,3.0,97,0.32,,,2.05,VWS V14.01,2015-07-07 16:01:00,
2015-07-07 11:06:00,70.4,69.5,29.91,NNE,23,0.0,3.0,97,0.30,,,2.07,VWS V14.01,2015-07-07 16:06:00,
2015-07-07 11:11:00,70.5,69.6,29.91,NNE,22,0.0,3.0,97,0.27,,,2.08,VWS V14.01,2015-07-07 16:11:00,
2015-07-07 11:16:00,70.5,69.6,29.91,NNE,23,0.0,3.0,97,0.23,,,2.09,VWS V14.01,2015-07-07 16:16:00,
2015-07-07 11:21:00,70.7,69.8,29.91,NNE,23,0.0,3.0,97,0.22,,,2.10,VWS V14.01,2015-07-07 16:21:00,
2015-07-07 11:26:00,70.8,69.9,29.91,NNE,22,0.0,3.0,97,0.22,,,2.11,VWS V14.01,2015-07-07 16:26:00,
2015-07-07 11:31:00,71.0,70.1,29.91,NNE,22,1.0,3.0,97,0.19,,,2.11,VWS V14.01,2015-07-07 16:31:00,
2015-07-07 11:36:00,71.1,70.2,29.91,NNE,23,1.0,3.0,97,0.16,,,2.11,VWS V14.01,2015-07-07 16:36:00,
2015-07-07 11:41:00,71.2,70.3,29.91,NNE,23,0.0,3.0,97,0.15,,,2.12,VWS V14.01,2015-07-07 16:41:00,
2015-07-07 11:46:00,71.3,70.4,29.91,NNE,32,0.0,3.0,97,0.13,,,2.12,VWS V14.01,2015-07-07 16:46:00,
2015-07-07 11:51:00,71.3,70.4,29.91,NNE,32,0.0,3.0,97,0.10,,,2.12,VWS V14.01,2015-07-07 16:51:00,
2015-07-07 11:56:00,71.4,70.5,29.91,NNE,32,0.0,3.0,97,0.10,,,2.12,VWS V14.01,2015-07-07 16:56:00,
2015-07-07 12:01:00,71.4,70.5,29.91,NNE,32,0.0,3.0,97,0.08,,,2.12,VWS V14.01,2015-07-07 17:01:00,
2015-07-07 12:06:00,71.5,70.6,29.91,NNE,30,0.0,3.0,97,0.08,,,2.13,VWS V14.01,2015-07-07 17:06:00,
2015-07-07 12:11:00,71.5,70.6,29.91,NNE,31,0.0,3.0,97,0.06,,,2.13,VWS V14.01,2015-07-07 17:11:00,
2015-07-07 12:16:00,71.6,70.7,29.91,SE,139,0.0,3.0,97,0.05,,,2.13,VWS V14.01,2015-07-07 17:16:00,
2015-07-07 12:21:00,71.8,70.9,29.91,East,84,0.0,3.0,97,0.04,,,2.13,VWS V14.01,2015-07-07 17:21:00,
2015-07-07 12:26:00,71.9,71.0,29.91,SE,144,1.0,3.0,97,0.03,,,2.13,VWS V14.01,2015-07-07 17:26:00,
2015-07-07 12:31:00,72.1,71.2,29.91,SE,144,0.0,3.0,97,0.02,,,2.13,VWS V14.01,2015-07-07 17:31:00,
2015-07-07 12:36:00,72.2,71.3,29.92,SE,144,0.0,3.0,97,0.02,,,2.13,VWS V14.01,2015-07-07 17:36:00,
2015-07-07 12:41:00,72.4,71.5,29.92,SSW,211,2.0,3.0,97,0.02,,,2.13,VWS V14.01,2015-07-07 17:41:00,
2015-07-07 12:46:00,72.3,71.4,29.92,SSW,209,2.0,3.0,97,0.01,,,2.13,VWS V14.01,2015-07-07 17:46:00,
2015-07-07 12:51:00,72.4,71.5,29.92,SSW,209,0.0,3.0,97,0.01,,,2.13,VWS V14.01,2015-07-07 17:51:00,
2015-07-07 12:56:00,72.5,71.6,29.92,SSW,209,1.0,3.0,97,0.01,,,2.13,VWS V14.01,2015-07-07 17:56:00,
2015-07-07 13:01:00,72.5,71.6,29.92,SW,215,0.0,3.0,97,0.01,,,2.13,VWS V14.01,2015-07-07 18:01:00,
2015-07-07 13:06:00,72.8,71.9,29.91,SW,216,0.0,3.0,97,0.01,,,2.13,VWS V14.01,2015-07-07 18:06:00,
2015-07-07 13:11:00,73.0,72.1,29.91,South,175,0.0,3.0,97,0.00,,,2.13,VWS V14.01,2015-07-07 18:11:00,
2015-07-07 13:16:00,72.8,71.6,29.91,South,172,0.0,3.0,96,0.00,,,2.13,VWS V14.01,2015-07-07 18:16:00,
2015-07-07 13:21:00,72.7,71.5,29.92,South,186,1.0,3.0,96,0.00,,,2.13,VWS V14.01,2015-07-07 18:21:00,
2015-07-07 13:26:00,72.7,71.5,29.92,ESE,113,0.0,3.0,96,0.00,,,2.13,VWS V14.01,2015-07-07 18:26:00,
2015-07-07 13:31:00,72.8,71.6,29.92,ESE,120,0.0,3.0,96,0.00,,,2.13,VWS V14.01,2015-07-07 18:31:00,
2015-07-07 13:36:00,72.9,71.7,29.92,ESE,103,0.0,3.0,96,0.00,,,2.13,VWS V14.01,2015-07-07 18:36:00,
2015-07-07 13:41:00,72.9,71.7,29.92,ESE,103,1.0,3.0,96,0.00,,,2.13,VWS V14.01,2015-07-07 18:41:00,
2015-07-07 13:46:00,72.9,71.4,29.92,ESE,107,0.0,3.0,95,0.00,,,2.13,VWS V14.01,2015-07-07 18:46:00,
2015-07-07 13:51:00,72.9,71.4,29.91,ESE,107,1.0,3.0,95,0.00,,,2.13,VWS V14.01,2015-07-07 18:51:00,
2015-07-07 13:56:00,72.8,71.3,29.91,SE,138,0.0,3.0,95,0.00,,,2.13,VWS V14.01,2015-07-07 18:56:00,
2015-07-07 14:01:00,72.8,71.3,29.91,SE,138,0.0,3.0,95,0.00,,,2.13,VWS V14.01,2015-07-07 19:01:00,
2015-07-07 14:06:00,72.9,71.4,29.92,SE,139,0.0,3.0,95,0.00,,,2.13,VWS V14.01,2015-07-07 19:06:00,
2015-07-07 14:11:00,72.9,71.4,29.92,SE,140,0.0,3.0,95,0.00,,,2.13,VWS V14.01,2015-07-07 19:11:00,
2015-07-07 14:16:00,72.9,71.4,29.92,SE,140,0.0,3.0,95,0.00,,,2.13,VWS V14.01,2015-07-07 19:16:00,
2015-07-07 14:21:00,72.7,71.2,29.92,SE,140,0.0,3.0,95,0.01,,,2.14,VWS V14.01,2015-07-07 19:21:00,
2015-07-07 14:26:00,72.6,71.4,29.92,SE,145,0.0,3.0,96,0.02,,,2.15,VWS V14.01,2015-07-07 19:26:00,
2015-07-07 14:31:00,72.5,71.3,29.92,SSE,153,0.0,3.0,96,0.03,,,2.16,VWS V14.01,2015-07-07 19:31:00,
2015-07-07 14:36:00,72.4,71.2,29.92,SSE,164,5.0,5.0,96,0.03,,,2.16,VWS V14.01,2015-07-07 19:36:00,
2015-07-07 14:41:00,72.3,71.1,29.92,South,175,1.0,3.0,96,0.04,,,2.17,VWS V14.01,2015-07-07 19:41:00,
2015-07-07 14:46:00,72.2,71.0,29.92,South,182,2.0,3.0,96,0.05,,,2.18,VWS V14.01,2015-07-07 19:46:00,
2015-07-07 14:51:00,72.2,71.0,29.92,South,176,1.0,3.0,96,0.06,,,2.19,VWS V14.01,2015-07-07 19:51:00,
2015-07-07 14:56:00,72.2,71.0,29.92,South,180,5.0,5.0,96,0.07,,,2.20,VWS V14.01,2015-07-07 19:56:00,
2015-07-07 15:01:00,72.2,71.0,29.92,South,180,0.0,3.0,96,0.07,,,2.20,VWS V14.01,2015-07-07 20:01:00,
2015-07-07 15:06:00,72.2,71.0,29.92,South,180,1.0,3.0,96,0.08,,,2.21,VWS V14.01,2015-07-07 20:06:00,
2015-07-07 15:11:00,72.2,71.0,29.92,South,182,0.0,3.0,96,0.08,,,2.21,VWS V14.01,2015-07-07 20:11:00,
2015-07-07 15:16:00,72.2,71.0,29.92,South,180,0.0,3.0,96,0.08,,,2.21,VWS V14.01,2015-07-07 20:16:00,
2015-07-07 15:21:00,72.3,71.4,29.92,South,180,0.0,3.0,97,0.09,,,2.22,VWS V14.01,2015-07-07 20:21:00,
2015-07-07 15:26:00,72.4,71.5,29.92,SSW,206,1.0,3.0,97,0.08,,,2.22,VWS V14.01,2015-07-07 20:26:00,
2015-07-07 15:31:00,72.5,71.6,29.92,SSW,206,1.0,3.0,97,0.07,,,2.22,VWS V14.01,2015-07-07 20:31:00,
2015-07-07 15:36:00,72.6,71.7,29.92,SSW,199,0.0,3.0,97,0.07,,,2.23,VWS V14.01,2015-07-07 20:36:00,
2015-07-07 15:41:00,72.5,71.6,29.92,SSW,205,2.0,3.0,97,0.07,,,2.23,VWS V14.01,2015-07-07 20:41:00,
2015-07-07 15:46:00,72.4,71.2,29.92,SSW,205,0.0,3.0,96,0.06,,,2.23,VWS V14.01,2015-07-07 20:46:00,
2015-07-07 15:51:00,72.5,71.3,29.91,SSW,205,0.0,3.0,96,0.05,,,2.23,VWS V14.01,2015-07-07 20:51:00,
2015-07-07 15:56:00,72.6,71.4,29.91,SSW,205,0.0,3.0,96,0.04,,,2.23,VWS V14.01,2015-07-07 20:56:00,
2015-07-07 16:01:00,72.7,71.5,29.91,SSW,205,0.0,3.0,96,0.03,,,2.23,VWS V14.01,2015-07-07 21:01:00,
2015-07-07 16:06:00,72.8,71.6,29.91,SSW,205,0.0,3.0,96,0.03,,,2.23,VWS V14.01,2015-07-07 21:06:00,
2015-07-07 16:11:00,72.8,71.6,29.91,SSW,205,0.0,3.0,96,0.02,,,2.23,VWS V14.01,2015-07-07 21:11:00,
2015-07-07 16:16:00,72.9,71.7,29.91,SSW,205,0.0,3.0,96,0.02,,,2.23,VWS V14.01,2015-07-07 21:16:00,
2015-07-07 16:21:00,72.8,71.6,29.90,South,180,0.0,3.0,96,0.02,,,2.23,VWS V14.01,2015-07-07 21:21:00,
2015-07-07 16:26:00,72.8,71.6,29.90,South,179,0.0,3.0,96,0.02,,,2.24,VWS V14.01,2015-07-07 21:26:00,
2015-07-07 16:31:00,72.8,71.6,29.90,South,180,0.0,3.0,96,0.02,,,2.24,VWS V14.01,2015-07-07 21:31:00,
2015-07-07 16:36:00,73.0,71.8,29.89,South,180,0.0,3.0,96,0.02,,,2.24,VWS V14.01,2015-07-07 21:36:00,
2015-07-07 16:41:00,72.9,71.7,29.89,South,180,0.0,3.0,96,0.01,,,2.24,VWS V14.01,2015-07-07 21:41:00,
2015-07-07 16:46:00,73.0,71.8,29.89,South,179,0.0,3.0,96,0.01,,,2.24,VWS V14.01,2015-07-07 21:46:00,
2015-07-07 16:51:00,73.0,71.8,29.90,WSW,246,0.0,3.0,96,0.01,,,2.24,VWS V14.01,2015-07-07 21:51:00,
2015-07-07 16:56:00,73.0,71.8,29.90,WSW,246,0.0,3.0,96,0.01,,,2.24,VWS V14.01,2015-07-07 21:56:00,
2015-07-07 17:01:00,73.0,71.8,29.90,WSW,246,0.0,3.0,96,0.01,,,2.24,VWS V14.01,2015-07-07 22:01:00,
2015-07-07 17:06:00,73.0,71.8,29.90,WSW,246,0.0,3.0,96,0.01,,,2.24,VWS V14.01,2015-07-07 22:06:00,
2015-07-07 17:11:00,72.9,71.7,29.90,SW,231,0.0,3.0,96,0.01,,,2.24,VWS V14.01,2015-07-07 22:11:00,
2015-07-07 17:16:00,73.0,71.8,29.90,SW,230,0.0,3.0,96,0.02,,,2.25,VWS V14.01,2015-07-07 22:16:00,
2015-07-07 17:21:00,73.1,71.9,29.89,SW,230,0.0,3.0,96,0.02,,,2.25,VWS V14.01,2015-07-07 22:21:00,
2015-07-07 17:26:00,73.1,71.9,29.89,SW,232,0.0,3.0,96,0.02,,,2.25,VWS V14.01,2015-07-07 22:26:00,
2015-07-07 17:31:00,73.1,71.9,29.89,SW,231,0.0,3.0,96,0.01,,,2.25,VWS V14.01,2015-07-07 22:31:00,
2015-07-07 17:36:00,73.2,72.0,29.89,SW,231,0.0,3.0,96,0.01,,,2.25,VWS V14.01,2015-07-07 22:36:00,
2015-07-07 17:41:00,73.1,72.2,29.89,SW,230,0.0,3.0,97,0.01,,,2.25,VWS V14.01,2015-07-07 22:41:00,
2015-07-07 17:46:00,73.1,72.2,29.89,SW,231,0.0,3.0,97,0.01,,,2.25,VWS V14.01,2015-07-07 22:46:00,
2015-07-07 17:51:00,73.1,71.9,29.89,SW,231,0.0,3.0,96,0.01,,,2.25,VWS V14.01,2015-07-07 22:51:00,
2015-07-07 17:56:00,73.1,72.2,29.89,South,190,0.0,3.0,97,0.01,,,2.25,VWS V14.01,2015-07-07 22:56:00,
2015-07-07 18:01:00,73.1,72.2,29.89,South,190,0.0,3.0,97,0.01,,,2.25,VWS V14.01,2015-07-07 23:01:00,
2015-07-07 18:06:00,73.1,71.9,29.89,South,190,0.0,3.0,96,0.01,,,2.25,VWS V14.01,2015-07-07 23:06:00,
2015-07-07 18:11:00,73.1,72.2,29.89,South,190,0.0,3.0,97,0.01,,,2.25,VWS V14.01,2015-07-07 23:11:00,
2015-07-07 18:16:00,73.0,72.1,29.89,South,190,0.0,3.0,97,0.01,,,2.25,VWS V14.01,2015-07-07 23:16:00,
2015-07-07 18:21:00,73.0,71.8,29.89,South,190,0.0,3.0,96,0.00,,,2.25,VWS V14.01,2015-07-07 23:21:00,
2015-07-07 18:26:00,72.9,71.7,29.89,South,190,0.0,3.0,96,0.00,,,2.25,VWS V14.01,2015-07-07 23:26:00,
2015-07-07 18:31:00,72.9,71.7,29.89,South,190,0.0,3.0,96,0.00,,,2.25,VWS V14.01,2015-07-07 23:31:00,
2015-07-07 18:36:00,73.0,72.1,29.90,South,190,0.0,3.0,97,0.00,,,2.25,VWS V14.01,2015-07-07 23:36:00,
2015-07-07 18:41:00,73.0,72.1,29.90,South,190,0.0,3.0,97,0.00,,,2.25,VWS V14.01,2015-07-07 23:41:00,
2015-07-07 18:51:00,73.2,72.3,29.90,South,190,0.0,3.0,97,0.00,,,2.25,VWS V14.01,2015-07-07 23:51:00,
2015-07-07 18:56:00,73.2,72.3,29.90,South,190,0.0,3.0,97,0.00,,,2.25,VWS V14.01,2015-07-07 23:56:00,
2015-07-07 19:01:00,73.1,71.9,29.90,South,190,0.0,3.0,96,0.00,,,2.25,VWS V14.01,2015-07-08 00:01:00,
2015-07-07 19:06:00,73.2,72.0,29.90,South,190,0.0,3.0,96,0.00,,,2.25,VWS V14.01,2015-07-08 00:06:00,
2015-07-07 19:11:00,73.0,71.8,29.90,South,190,0.0,3.0,96,0.00,,,2.25,VWS V14.01,2015-07-08 00:11:00,
2015-07-07 19:16:00,72.9,71.7,29.90,South,190,0.0,3.0,96,0.00,,,2.25,VWS V14.01,2015-07-08 00:16:00,
2015-07-07 19:21:00,72.9,71.7,29.91,South,190,0.0,3.0,96,0.00,,,2.25,VWS V14.01,2015-07-08 00:21:00,
2015-07-07 19:26:00,72.8,71.6,29.91,South,190,0.0,3.0,96,0.00,,,2.25,VWS V14.01,2015-07-08 00:26:00,
2015-07-07 19:31:00,72.7,71.5,29.91,South,190,0.0,3.0,96,0.00,,,2.25,VWS V14.01,2015-07-08 00:31:00,
2015-07-07 19:36:00,72.8,71.6,29.91,South,190,0.0,3.0,96,0.00,,,2.25,VWS V14.01,2015-07-08 00:36:00,
2015-07-07 19:41:00,72.8,71.6,29.91,South,190,0.0,3.0,96,0.00,,,2.25,VWS V14.01,2015-07-08 00:41:00,
2015-07-07 19:46:00,72.8,71.6,29.91,South,190,0.0,3.0,96,0.00,,,2.25,VWS V14.01,2015-07-08 00:46:00,
2015-07-07 19:51:00,72.8,71.6,29.91,South,190,0.0,3.0,96,0.00,,,2.25,VWS V14.01,2015-07-08 00:51:00,
2015-07-07 19:56:00,72.7,71.5,29.91,South,190,0.0,3.0,96,0.00,,,2.25,VWS V14.01,2015-07-08 00:56:00,
2015-07-07 20:01:00,72.7,71.5,29.91,South,190,0.0,3.0,96,0.00,,,2.25,VWS V14.01,2015-07-08 01:01:00,
2015-07-07 20:06:00,72.6,71.4,29.90,South,190,0.0,3.0,96,0.00,,,2.25,VWS V14.01,2015-07-08 01:06:00,
2015-07-07 20:11:00,72.6,71.4,29.90,South,190,0.0,3.0,96,0.00,,,2.25,VWS V14.01,2015-07-08 01:11:00,
2015-07-07 20:16:00,72.5,71.3,29.90,South,190,0.0,3.0,96,0.00,,,2.25,VWS V14.01,2015-07-08 01:16:00,
2015-07-07 20:21:00,72.4,71.2,29.90,South,190,0.0,3.0,96,0.00,,,2.25,VWS V14.01,2015-07-08 01:21:00,
2015-07-07 20:26:00,72.3,71.1,29.90,South,190,0.0,3.0,96,0.00,,,2.25,VWS V14.01,2015-07-08 01:26:00,
2015-07-07 20:31:00,72.2,71.0,29.90,South,190,0.0,3.0,96,0.00,,,2.25,VWS V14.01,2015-07-08 01:31:00,
2015-07-07 20:36:00,72.1,70.9,29.90,South,190,0.0,3.0,96,0.00,,,2.25,VWS V14.01,2015-07-08 01:36:00,
2015-07-07 20:41:00,72.0,70.8,29.90,South,190,0.0,3.0,96,0.00,,,2.25,VWS V14.01,2015-07-08 01:41:00,
2015-07-07 20:46:00,72.0,70.8,29.90,South,190,0.0,3.0,96,0.00,,,2.25,VWS V14.01,2015-07-08 01:46:00,
2015-07-07 20:51:00,71.9,70.7,29.90,South,190,0.0,3.0,96,0.00,,,2.25,VWS V14.01,2015-07-08 01:51:00,
2015-07-07 20:56:00,71.8,70.9,29.90,South,190,0.0,3.0,97,0.00,,,2.25,VWS V14.01,2015-07-08 01:56:00,
2015-07-07 21:01:00,71.8,70.9,29.90,South,190,0.0,3.0,97,0.00,,,2.25,VWS V14.01,2015-07-08 02:01:00,
2015-07-07 21:06:00,71.7,70.8,29.91,South,190,0.0,3.0,97,0.00,,,2.25,VWS V14.01,2015-07-08 02:06:00,
2015-07-07 21:11:00,71.7,70.8,29.91,South,190,0.0,3.0,97,0.00,,,2.25,VWS V14.01,2015-07-08 02:11:00,
2015-07-07 21:16:00,71.7,70.8,29.91,South,190,0.0,3.0,97,0.00,,,2.25,VWS V14.01,2015-07-08 02:16:00,
2015-07-07 21:21:00,71.7,70.8,29.92,South,190,0.0,3.0,97,0.00,,,2.25,VWS V14.01,2015-07-08 02:21:00,
2015-07-07 21:26:00,71.7,70.8,29.92,South,190,0.0,3.0,97,0.00,,,2.25,VWS V14.01,2015-07-08 02:26:00,
2015-07-07 21:31:00,71.7,70.8,29.92,South,190,0.0,3.0,97,0.00,,,2.25,VWS V14.01,2015-07-08 02:31:00,
2015-07-07 21:36:00,71.7,70.8,29.93,South,190,0.0,3.0,97,0.00,,,2.25,VWS V14.01,2015-07-08 02:36:00,
2015-07-07 21:46:00,71.7,70.8,29.93,South,190,0.0,3.0,97,0.00,,,2.25,VWS V14.01,2015-07-08 02:46:00,
2015-07-07 21:51:00,71.7,70.8,29.93,South,190,0.0,3.0,97,0.00,,,2.25,VWS V14.01,2015-07-08 02:51:00,
2015-07-07 21:56:00,71.8,70.9,29.93,South,190,0.0,3.0,97,0.00,,,2.25,VWS V14.01,2015-07-08 02:56:00,
2015-07-07 22:01:00,71.7,70.8,29.93,South,190,0.0,3.0,97,0.00,,,2.25,VWS V14.01,2015-07-08 03:01:00,
2015-07-07 22:06:00,71.7,70.8,29.93,South,190,0.0,3.0,97,0.00,,,2.25,VWS V14.01,2015-07-08 03:06:00,
2015-07-07 22:11:00,71.7,70.8,29.93,South,190,0.0,3.0,97,0.00,,,2.25,VWS V14.01,2015-07-08 03:11:00,
2015-07-07 22:16:00,71.6,70.7,29.93,South,190,0.0,3.0,97,0.00,,,2.25,VWS V14.01,2015-07-08 03:16:00,
2015-07-07 22:21:00,71.6,70.7,29.93,South,190,0.0,3.0,97,0.00,,,2.25,VWS V14.01,2015-07-08 03:21:00,
2015-07-07 22:26:00,71.5,70.6,29.93,South,190,0.0,3.0,97,0.00,,,2.25,VWS V14.01,2015-07-08 03:26:00,
2015-07-07 22:36:00,71.4,70.5,29.93,South,190,0.0,3.0,97,0.00,,,2.25,VWS V14.01,2015-07-08 03:36:00,
2015-07-07 22:41:00,71.4,70.5,29.93,South,190,0.0,3.0,97,0.00,,,2.25,VWS V14.01,2015-07-08 03:41:00,
2015-07-07 22:46:00,71.3,70.4,29.93,South,190,0.0,3.0,97,0.00,,,2.25,VWS V14.01,2015-07-08 03:46:00,
2015-07-07 22:51:00,71.3,70.4,29.92,South,190,0.0,3.0,97,0.00,,,2.25,VWS V14.01,2015-07-08 03:51:00,
2015-07-07 22:56:00,71.3,70.4,29.92,South,190,0.0,3.0,97,0.00,,,2.25,VWS V14.01,2015-07-08 03:56:00,
2015-07-07 23:01:00,71.2,70.3,29.92,South,190,0.0,3.0,97,0.00,,,2.25,VWS V14.01,2015-07-08 04:01:00,
2015-07-07 23:06:00,71.2,70.3,29.93,South,190,0.0,3.0,97,0.00,,,2.25,VWS V14.01,2015-07-08 04:06:00,
2015-07-07 23:11:00,71.2,70.3,29.93,South,190,0.0,3.0,97,0.00,,,2.25,VWS V14.01,2015-07-08 04:11:00,
2015-07-07 23:16:00,71.3,70.4,29.93,South,190,0.0,3.0,97,0.00,,,2.25,VWS V14.01,2015-07-08 04:16:00,
2015-07-07 23:26:00,71.2,70.3,29.93,South,190,0.0,3.0,97,0.00,,,2.25,VWS V14.01,2015-07-08 04:26:00,
2015-07-07 23:31:00,71.1,70.2,29.93,South,190,0.0,3.0,97,0.00,,,2.25,VWS V14.01,2015-07-08 04:31:00,
2015-07-07 23:36:00,71.1,70.2,29.93,South,190,0.0,3.0,97,0.00,,,2.25,VWS V14.01,2015-07-08 04:36:00,
2015-07-07 23:41:00,71.0,70.1,29.93,South,190,0.0,3.0,97,0.00,,,2.25,VWS V14.01,2015-07-08 04:41:00,
2015-07-07 23:46:00,71.0,70.1,29.93,South,190,0.0,3.0,97,0.00,,,2.25,VWS V14.01,2015-07-08 04:46:00,
2015-07-07 23:51:00,70.9,70.0,29.93,South,190,0.0,3.0,97,0.00,,,2.25,VWS V14.01,2015-07-08 04:51:00,
2015-07-07 23:56:00,70.9,70.0,29.93,South,190,0.0,3.0,97,0.00,,,2.25,VWS V14.01,2015-07-08 04:56:00,